• In Uzbekistan
  • List of Countries
  • For 7 days
  • Water Temperature
  • Satellite Maps
  • Weather Map
  • Weather Widgets
  • user-avatar
    Login

    Hourly Weather Encamp

    Today, 23 January, Tuesday

    Time Temperature Precipitation Wind Pressure Humidity
    00:00 -1°C° 0 mm 3 mps 627 mmHg 79%
    01:00 -1°C° 0 mm 3 mps 627 mmHg 75%
    02:00 -1°C° 0 mm 3 mps 627 mmHg 72%
    03:00 -1°C° 0 mm 3 mps 627 mmHg 69%
    04:00 -2°C° 0 mm 3 mps 627 mmHg 67%
    05:00 -2°C° 0 mm 3 mps 627 mmHg 65%
    06:00 -2°C° 0 mm 2 mps 627 mmHg 63%
    07:00 -1°C° 0 mm 2 mps 628 mmHg 60%
    08:00 +2°C° 0 mm 2 mps 629 mmHg 57%
    09:00 +3°C° 0 mm 2 mps 629 mmHg 54%
    10:00 +4°C° 0 mm 2 mps 630 mmHg 52%
    11:00 +6°C° 0 mm 2 mps 630 mmHg 50%
    12:00 +8°C° 0 mm 2 mps 631 mmHg 48%
    13:00 +8°C° 0 mm 2 mps 631 mmHg 51%
    14:00 +7°C° 0 mm 2 mps 631 mmHg 54%
    15:00 +7°C° 0 mm 2 mps 630 mmHg 57%
    16:00 +5°C° 0 mm 2 mps 630 mmHg 64%
    17:00 +4°C° 0 mm 1 mps 629 mmHg 71%
    18:00 +3°C° 0 mm 1 mps 629 mmHg 77%
    19:00 +2°C° 0 mm 1 mps 629 mmHg 76%
    20:00 +2°C° 0 mm 1 mps 629 mmHg 75%
    21:00 +2°C° 0 mm 1 mps 629 mmHg 74%
    22:00 +2°C° 0 mm 1 mps 629 mmHg 73%
    23:00 +2°C° 0 mm 1 mps 629 mmHg 72%

    Tomorrow, 24 January, Wednesday

    Time Temperature Precipitation Wind Pressure Humidity
    00:00 +2°C° 0 mm 1 mps 629 mmHg 71%
    01:00 +2°C° 0 mm 1 mps 629 mmHg 70%
    02:00 +1°C° 0 mm 1 mps 628 mmHg 69%
    03:00 +1°C° 0 mm 1 mps 628 mmHg 68%
    04:00 +1°C° 0 mm 1 mps 628 mmHg 69%
    05:00 +1°C° 0 mm 1 mps 628 mmHg 69%
    06:00 +1°C° 0 mm 1 mps 628 mmHg 69%
    07:00 +2°C° 0 mm 1 mps 628 mmHg 68%
    08:00 +3°C° 0 mm 1 mps 628 mmHg 67%
    09:00 +3°C° 0 mm 2 mps 629 mmHg 65%
    10:00 +5°C° 0 mm 2 mps 629 mmHg 62%
    11:00 +6°C° 0 mm 2 mps 630 mmHg 58%
    12:00 +8°C° 0 mm 2 mps 630 mmHg 54%
    13:00 +8°C° 0 mm 2 mps 630 mmHg 56%
    14:00 +8°C° 0 mm 2 mps 629 mmHg 57%
    15:00 +7°C° 0 mm 2 mps 629 mmHg 59%
    16:00 +5°C° 0 mm 2 mps 628 mmHg 64%
    17:00 +3°C° 0 mm 2 mps 627 mmHg 70%
    18:00 +3°C° 0 mm 1 mps 627 mmHg 76%
    19:00 +2°C° 0 mm 1 mps 626 mmHg 74%
    20:00 +2°C° 0 mm 1 mps 626 mmHg 71%
    21:00 +2°C° 0 mm 1 mps 626 mmHg 69%
    22:00 -1°C° 0 mm 2 mps 626 mmHg 70%
    23:00 -1°C° 0 mm 2 mps 626 mmHg 71%

    Day after tomorrow, 25 January, Thursday

    Time Temperature Precipitation Wind Pressure Humidity
    00:00 -1°C° 0 mm 2 mps 625 mmHg 71%
    01:00 -1°C° 0 mm 2 mps 625 mmHg 72%
    02:00 -1°C° 0 mm 2 mps 625 mmHg 73%
    03:00 -1°C° 0 mm 2 mps 624 mmHg 73%
    04:00 -1°C° 0 mm 2 mps 624 mmHg 73%
    05:00 -1°C° 0 mm 2 mps 624 mmHg 73%
    06:00 -1°C° 0 mm 2 mps 623 mmHg 73%
    07:00 +1°C° 0 mm 2 mps 623 mmHg 71%
    08:00 +2°C° 0 mm 2 mps 624 mmHg 69%
    09:00 +2°C° 0 mm 2 mps 624 mmHg 67%
    10:00 +4°C° 0 mm 2 mps 624 mmHg 63%
    11:00 +4°C° 0 mm 3 mps 624 mmHg 59%
    12:00 +5°C° 0 mm 3 mps 624 mmHg 56%
    13:00 +5°C° 0 mm 3 mps 623 mmHg 59%
    14:00 +4°C° 0 mm 3 mps 623 mmHg 62%
    15:00 +4°C° 0 mm 3 mps 622 mmHg 66%
    16:00 +3°C° 0.4 mm 2 mps 622 mmHg 74%
    17:00 +2°C° 0.4 mm 2 mps 621 mmHg 82%
    18:00 +2°C° 0.4 mm 1 mps 621 mmHg 91%
    19:00 -1°C° 0.5 mm 2 mps 621 mmHg 92%
    20:00 -1°C° 0.5 mm 2 mps 621 mmHg 93%
    21:00 -2°C° 0.5 mm 2 mps 621 mmHg 94%
    22:00 -2°C° 0.7 mm 2 mps 621 mmHg 93%
    23:00 -2°C° 0.7 mm 2 mps 621 mmHg 92%

    26 January, Friday

    Time Temperature Precipitation Wind Pressure Humidity
    00:00 -2°C° 0.7 mm 3 mps 621 mmHg 91%
    01:00 -4°C° 0.4 mm 3 mps 621 mmHg 90%
    02:00 -4°C° 0.4 mm 3 mps 621 mmHg 89%
    03:00 -5°C° 0.4 mm 3 mps 620 mmHg 88%
    04:00 -5°C° 0.4 mm 3 mps 621 mmHg 87%
    05:00 -5°C° 0.4 mm 3 mps 621 mmHg 86%
    06:00 -5°C° 0.4 mm 3 mps 621 mmHg 85%
    07:00 -5°C° 0.1 mm 4 mps 622 mmHg 83%
    08:00 -5°C° 0.1 mm 4 mps 622 mmHg 82%
    09:00 -5°C° 0.1 mm 4 mps 623 mmHg 80%
    10:00 -4°C° 0 mm 4 mps 623 mmHg 75%
    11:00 -4°C° 0 mm 4 mps 623 mmHg 71%
    12:00 -3°C° 0 mm 4 mps 624 mmHg 66%
    13:00 -3°C° 0 mm 4 mps 624 mmHg 64%
    14:00 -3°C° 0 mm 4 mps 624 mmHg 63%
    15:00 -3°C° 0 mm 4 mps 624 mmHg 61%
    16:00 -4°C° 0.1 mm 4 mps 624 mmHg 65%
    17:00 -5°C° 0.1 mm 3 mps 624 mmHg 70%
    18:00 -6°C° 0.1 mm 3 mps 624 mmHg 75%
    19:00 -6°C° 0.2 mm 3 mps 624 mmHg 76%
    20:00 -6°C° 0.2 mm 3 mps 625 mmHg 77%
    21:00 -6°C° 0.2 mm 3 mps 625 mmHg 78%
    22:00 -6°C° 0.2 mm 3 mps 625 mmHg 78%
    23:00 -6°C° 0.2 mm 3 mps 625 mmHg 78%

    27 January, Saturday

    Time Temperature Precipitation Wind Pressure Humidity
    00:00 -6°C° 0.2 mm 3 mps 625 mmHg 79%
    01:00 -8°C° 0.1 mm 4 mps 625 mmHg 79%
    02:00 -8°C° 0.1 mm 4 mps 625 mmHg 79%
    03:00 -8°C° 0.1 mm 4 mps 625 mmHg 79%
    04:00 -8°C° 0.1 mm 4 mps 625 mmHg 79%
    05:00 -8°C° 0.1 mm 4 mps 625 mmHg 79%
    06:00 -8°C° 0.1 mm 4 mps 625 mmHg 79%
    07:00 -8°C° 0 mm 4 mps 625 mmHg 75%
    08:00 -7°C° 0 mm 4 mps 626 mmHg 72%
    09:00 -7°C° 0 mm 4 mps 626 mmHg 69%
    10:00 -5°C° 0 mm 4 mps 626 mmHg 64%
    11:00 -4°C° 0 mm 4 mps 626 mmHg 60%
    12:00 -3°C° 0 mm 4 mps 627 mmHg 56%
    13:00 -3°C° 0 mm 4 mps 626 mmHg 55%
    14:00 -3°C° 0 mm 4 mps 626 mmHg 55%
    15:00 -3°C° 0 mm 4 mps 625 mmHg 55%
    16:00 -5°C° 0 mm 4 mps 625 mmHg 61%
    17:00 -6°C° 0 mm 3 mps 625 mmHg 67%
    18:00 -8°C° 0 mm 3 mps 624 mmHg 73%
    19:00 -8°C° 0.1 mm 3 mps 625 mmHg 74%
    20:00 -7°C° 0.1 mm 3 mps 626 mmHg 76%
    21:00 -7°C° 0.1 mm 3 mps 626 mmHg 77%
    22:00 -7°C° 0 mm 3 mps 626 mmHg 77%
    23:00 -8°C° 0 mm 3 mps 627 mmHg 78%

    28 January, Sunday

    Time Temperature Precipitation Wind Pressure Humidity
    00:00 -8°C° 0 mm 3 mps 627 mmHg 78%
    01:00 -8°C° 0 mm 3 mps 627 mmHg 77%
    02:00 -8°C° 0 mm 3 mps 627 mmHg 76%
    03:00 -8°C° 0 mm 3 mps 627 mmHg 76%
    04:00 -7°C° 0 mm 3 mps 628 mmHg 76%
    05:00 -7°C° 0 mm 3 mps 628 mmHg 76%
    06:00 -7°C° 0 mm 3 mps 629 mmHg 77%
    07:00 -5°C° 0 mm 2 mps 629 mmHg 75%
    08:00 -3°C° 0 mm 2 mps 630 mmHg 73%
    09:00 -2°C° 0 mm 2 mps 631 mmHg 72%
    10:00 +1°C° 0 mm 2 mps 632 mmHg 68%
    11:00 +2°C° 0 mm 2 mps 632 mmHg 65%
    12:00 +4°C° 0 mm 2 mps 633 mmHg 61%
    13:00 +4°C° 0 mm 2 mps 632 mmHg 62%
    14:00 +4°C° 0 mm 2 mps 632 mmHg 64%
    15:00 +4°C° 0 mm 2 mps 632 mmHg 65%
    16:00 +2°C° 0 mm 2 mps 631 mmHg 71%
    17:00 -1°C° 0 mm 2 mps 631 mmHg 77%
    18:00 -3°C° 0 mm 2 mps 630 mmHg 82%
    19:00 -4°C° 0 mm 2 mps 630 mmHg 78%
    20:00 -4°C° 0 mm 2 mps 630 mmHg 74%
    21:00 -5°C° 0 mm 2 mps 630 mmHg 70%
    22:00 -5°C° 0 mm 2 mps 630 mmHg 68%
    23:00 -5°C° 0 mm 2 mps 630 mmHg 66%
    Show more